Tracking 26933 objects as of 5-Feb-2023
HD Live streaming from Space Station
objects crossing your sky now

STARLINK-1542

Track STARLINK-1542 now!
10-day predictions
STARLINK-1542 is classified as:


NORAD ID: 46073
Int'l Code: 2020-055AY
Perigee: 553.4 km
Apogee: 555.3 km
Inclination: 53.1 °
Period: 95.6 minutes
Semi major axis: 6925 km
RCS: Unknown
Launch date: August 7, 2020
Source: United States (US)
Launch site: AIR FORCE EASTERN TEST RANGE (AFETR)
Your satellite tracking list
Your tracking list is empty




NASA's NSSDC Master Catalog

Two Line Element Set (TLE):
1 46073U 20055AY  23035.51836931  .00001685  00000-0  13194-3 0  9992
2 46073  53.0540 125.6629 0001344  81.8821 278.2320 15.06405774139118
Source of the keplerian elements: AFSPC